Overview Statistics Trail Chart Weather Telemetry Raw packets
 

This is the latest recevied weather packets stored in our database for station/object KF0WJA. If no packets are shown the sender has not sent any weather packets the latest 10 day(s).

<< 5 6 7 8 9 10 11 >>
Time Temp. Humidity Pressure Rain* Wind** Luminosity Snow
1788624276 35° C 44% 1017.3 hPa 0 mm - 582 W/m² -
1788623975 35° C 46% 1017.2 hPa 0 mm - 531 W/m² -
1788623671 35° C 47% 1017.4 hPa 0 mm - 546 W/m² -
1788623369 34.44° C 48% 1017.5 hPa 0 mm - 551 W/m² -
1788623065 34.44° C 49% 1017.2 hPa 0 mm - 531 W/m² -
1788622760 33.89° C 48% 1017.2 hPa 0 mm - 514 W/m² -
1788622457 34.44° C 49% 1017.4 hPa 0 mm - 505 W/m² -
1788622156 34.44° C 49% 1017.4 hPa 0 mm - 475 W/m² -
1788621855 33.89° C 50% 1017.1 hPa 0 mm - 444 W/m² -
1788621551 33.89° C 50% 1017.3 hPa 0 mm - 424 W/m² -
1788621247 33.33° C 51% 1017.3 hPa 0 mm - 373 W/m² -
1788620947 33.33° C 51% 1017.1 hPa 0 mm - 364 W/m² -
1788620647 32.78° C 52% 1017 hPa 0 mm - 360 W/m² -
1788620343 33.33° C 52% 1017 hPa 0 mm - 343 W/m² -
1788620038 32.78° C 53% 1017.1 hPa 0 mm - 314 W/m² -
1788619738 32.78° C 53% 1016.9 hPa 0 mm - 305 W/m² -
1788619433 32.22° C 54% 1016.9 hPa 0 mm - 286 W/m² -
1788619131 32.22° C 54% 1017 hPa 0 mm - 288 W/m² -
1788618826 31.67° C 56% 1016.7 hPa 0 mm - 278 W/m² -
1788618526 31.67° C 56% 1016.8 hPa 0 mm - 229 W/m² -
1788618224 31.11° C 56% 1016.8 hPa 0 mm - 230 W/m² -
1788617920 31.11° C 57% 1016.8 hPa 0 mm - 207 W/m² -
1788617616 30.56° C 57% 1016.9 hPa 0 mm - 214 W/m² -
1788617312 30.56° C 59% 1016.8 hPa 0 mm - 182 W/m² -
1788617011 30.56° C 59% 1016.8 hPa 0 mm - 192 W/m² -

* Rain latest hour (hover to see other rain measurements)
** Current wind speed in m/s (hover to see current wind gust speed)